AMOS-17

Last updated on Sept. 24, 2020, 5:43 a.m. UTC

1 44479U 19050A   20267.32677355  .00000090  00000-0  00000+0 0  9996
2 44479   0.0327 274.0071 0002252 264.4666 318.8220  1.00274725  4206
UTC
Height (km)
Latitude
Longitude
Inclination
Orbital Period
UTC large
Height (km)
Speed (km/s)
/
Latitude / Longitude
Inclination (degrees)
Orbital Period (minutes)
Azimuth
Elevation
Range (km)
Doppler Factor
iOS Compass Heading
iOS Angle

Next 30 passes for location: Hong Kong

Rise time Rise Azimuth (degrees) Set time Set Azimuth (degrees) Duration Max altitude (degrees)

No matching passes for this satellites